[[{"header":{"parameterUnit":"m.s-1","parameterCategory":1,"la1":30.2991,"la2":30.254,"lo1":-89.0895,"lo2":-89.0444,"dy":0.0017,"dx":0.0017,"nx":28,"ny":28,"refTime":"2024-09-29T03:00:00:Z","depth":0,"parameterNumber":2,"parameterNumberName":"U-component_of_WINDS"},"data":[0,0,0,0,0,0,0,0,0,0,0,0,0,0,0,0,0,0,0,0,0,0,0,0,0,0,0,0,0,0,0,0,0,0,0,0,0,0,0,0,0,0,0,0,0,0,0,0,0,0,0,0,0,0,0,0,0,0,2.77,2.7702,0,2.7865,2.7866,2.7868,2.7851,2.7848,2.7846,2.7843,2.8016,2.8023,2.803,0,0,0,0,0,0,0,0,0,0,0,0,0,2.7376,2.7382,2.77,2.7702,2.7704,2.7864,2.7866,2.7869,2.7851,2.7848,2.7845,2.7842,2.8014,2.8022,2.8031,0,0,0,0,0,0,0,0,0,0,0,0,0,2.7526,2.7384,2.77,2.7715,2.7718,2.7864,2.7867,2.7869,2.7852,2.7848,2.7844,2.7841,2.8011,2.8022,2.8032,2.8175,0,0,2.8064,2.8069,0,0,0,0,0,0,0,0,2.7518,2.7538,2.771,2.7714,2.7717,2.7833,2.7816,2.7972,2.7853,2.7801,2.7843,2.7839,2.7959,2.7973,2.8013,2.8183,2.8191,2.8065,2.8072,2.8076,2.8079,0,0,0,0,0,0,0,2.7507,2.7531,2.7765,2.7713,2.7717,2.7715,2.7732,2.7845,2.79,2.7805,2.7805,2.7824,2.796,2.8003,2.8017,2.8193,2.8065,2.8074,2.8081,2.8085,2.8491,2.8495,0,0,0,0,0,0,2.7493,2.7522,2.776,2.777,2.7606,2.7724,2.7743,2.78,2.7899,2.791,2.7827,2.7823,2.7987,2.8005,2.8023,2.8198,2.8076,2.8086,2.8092,2.8487,2.8492,2.8497,0,0,0,0,0,0,2.7486,2.7514,2.7753,2.7646,2.7676,2.7733,2.7798,2.7805,2.7848,2.7915,2.7925,2.7861,2.7984,2.8008,2.8137,2.8204,2.8091,2.81,2.8481,2.8488,2.8494,2.8549,0,0,0,0,0,0,2.7476,2.7511,2.7565,2.7647,2.7682,2.7864,2.7802,2.7811,2.7866,2.7861,2.7949,2.796,2.7983,2.8122,2.8148,2.8216,2.8108,2.8476,2.8484,2.8492,2.8541,2.8557,2.857,0,0,0,0,0,2.7465,2.7575,2.7568,2.7597,2.775,2.7867,2.7888,2.7911,2.7871,2.7927,2.797,2.7957,2.8192,2.8135,2.8165,2.8237,2.8472,2.8482,2.8492,2.8535,2.8554,2.8569,0,0,0,0,0,0,2.75,2.7586,2.7579,2.7719,2.7786,2.7864,2.7935,2.7929,2.801,2.8003,2.803,2.805,2.8181,2.8222,2.8157,2.8382,2.8327,2.8343,2.835,2.8368,2.8382,2.837,2.8117,0,0,0,0,0,2.7524,2.7611,2.7681,2.7798,2.7831,2.7877,2.7929,2.7941,2.8013,2.8041,2.8094,2.8165,2.8255,2.8314,2.84,2.8547,2.8567,2.8612,2.8626,2.8637,2.8651,2.8734,2.8755,2.853,2.853,2.8529,0,0,2.7575,2.7632,2.7685,2.7806,2.7859,2.795,2.7901,2.7999,2.8067,2.8057,2.8182,2.8223,2.8304,2.8443,2.8507,2.8482,2.8718,2.865,2.8658,2.8667,2.8746,2.8767,2.8786,2.8537,2.8535,2.8534,0,0,2.7713,2.7765,2.7868,2.7922,2.8003,2.8033,2.8058,2.8138,2.8164,2.829,2.8284,2.8366,2.852,2.8579,2.8629,2.879,2.8782,2.8818,2.8892,2.8972,2.8989,2.9005,2.9064,2.9085,2.8831,2.8832,2.8832,0,2.7766,2.7901,2.7922,2.8021,2.8075,2.8068,2.8173,2.8226,2.8332,2.837,2.8339,2.8533,2.8587,2.8741,2.878,2.882,2.8851,2.8808,2.8985,2.9001,2.9016,2.9073,2.9095,2.8835,2.8835,2.8835,2.8834,0,2.7963,2.8057,2.813,2.8231,2.8294,2.8396,2.8433,2.8494,2.8501,2.8535,2.8664,2.8729,2.8829,2.8866,2.8874,2.9021,2.9003,2.8978,2.8924,2.9041,2.9095,2.9117,2.8841,2.884,2.8838,2.8837,0,0,2.8129,2.824,2.8267,2.8313,2.8402,2.8476,2.8578,2.8674,2.8727,2.88,2.8888,2.9019,2.8997,2.9053,2.9068,2.9138,2.9264,2.9106,2.9108,2.9134,2.9432,2.945,2.9475,2.9259,2.9263,2.9266,2.9425,0,2.8277,2.8456,2.8478,2.8638,2.8726,2.8721,2.881,2.8876,2.891,2.8991,2.903,2.9122,2.9086,2.912,2.9189,2.9234,2.9324,2.9222,2.9342,2.9346,2.9323,2.9503,2.9522,2.9669,2.9446,2.945,2.9452,0,2.8474,2.8551,2.872,2.8798,2.8835,2.8915,2.9006,2.9082,2.9157,2.9177,2.9241,2.9247,2.9355,2.9295,2.9445,2.9375,2.9426,2.9455,2.9462,2.9475,2.9407,2.9522,2.9717,2.9739,2.9486,2.9483,2.948,0,2.8579,2.8726,2.8846,2.8886,2.8979,2.9035,2.9077,2.9148,2.9205,2.9285,2.9322,2.9414,2.9465,2.9537,2.9568,2.9522,2.9717,2.966,2.9738,2.9738,2.978,2.9777,2.9987,2.9811,2.9811,2.9811,2.981,0,2.8743,2.8847,2.8895,2.8969,2.9085,2.911,2.9225,2.9265,2.9328,2.9411,2.9413,2.9491,2.9527,2.9612,2.9638,2.9759,2.9781,2.9802,2.9808,2.9803,2.98,2.9837,2.9828,2.9816,2.9815,2.9814,2.9813,0,2.8881,2.8917,2.9048,2.9125,2.9147,2.923,2.9297,2.937,2.9403,2.9508,2.9534,2.9588,2.9688,2.9726,2.9848,2.9865,3.0005,3.0002,2.998,2.9981,3.0058,3.0051,3.03,3.0335,3.0135,3.0136,3.0138,0,2.8983,2.9063,2.9149,2.9203,2.9247,2.9335,2.9393,2.9421,2.9482,2.9573,2.9636,2.9734,2.9815,2.9975,3.0026,3.0119,3.012,3.02,3.0134,3.0126,3.0122,3.0118,3.0126,3.0213,3.0215,3.0217,3.0218,0,2.9162,2.9176,2.9258,2.9347,2.9416,2.9488,2.9558,2.9603,2.9642,2.971,2.9811,2.9874,2.9998,3.0097,3.0193,3.0238,3.0236,3.0238,3.0262,3.0258,3.0242,3.0253,3.0014,3.0233,3.0231,3.023,3.0229,3.0229,2.9287,2.9357,2.9429,2.9521,2.9576,2.9641,2.9713,2.9756,2.984,2.9942,2.9954,3.0063,3.0137,3.0266,3.0315,3.0402,3.0381,3.0415,3.0424,3.0432,3.0438,3.0227,3.042,3.042,3.0419,3.0419,3.0419,0,2.9467,2.9512,2.9596,2.9693,2.9766,2.9755,2.9832,2.9895,2.999,3.0058,3.0137,3.0254,3.035,3.0409,3.0506,3.0564,3.0566,3.0589,3.0586,3.0597,3.0451,3.0421,3.0586,3.0586,3.0586,3.0586,3.0586,3.0586,2.9569,2.9688,2.971,2.9858,2.9903,3.0009,3.0054,3.0115,3.017,3.03,3.0379,3.0415,3.0481,3.0583,3.0671,3.0686,3.0722,3.0748,3.0761,3.0624,3.0607,3.059,3.0563,3.0755,3.0755,3.09,3.0901,3.0902]},{"header":{"parameterUnit":"m.s-1","parameterCategory":1,"la1":30.2991,"la2":30.254,"lo1":-89.0895,"lo2":-89.0444,"dy":0.0017,"dx":0.0017,"nx":28,"ny":28,"refTime":"2024-09-29T03:00:00:Z","depth":0,"parameterNumber":3,"parameterNumberName":"V-component_of_WINDS"},"data":[0,0,0,0,0,0,0,0,0,0,0,0,0,0,0,0,0,0,0,0,0,0,0,0,0,0,0,0,0,0,0,0,0,0,0,0,0,0,0,0,0,0,0,0,0,0,0,0,0,0,0,0,0,0,0,0,0,0,-0.9802,-0.9802,0,-0.978,-0.978,-0.978,-0.978,-0.978,-0.9781,-0.9781,-0.9756,-0.9755,-0.9754,0,0,0,0,0,0,0,0,0,0,0,0,0,-0.9841,-0.984,-0.9802,-0.9802,-0.9801,-0.978,-0.978,-0.978,-0.978,-0.978,-0.9781,-0.9781,-0.9756,-0.9755,-0.9754,0,0,0,0,0,0,0,0,0,0,0,0,0,-0.9822,-0.984,-0.9802,-0.9799,-0.9799,-0.978,-0.978,-0.9779,-0.978,-0.978,-0.9781,-0.9781,-0.9757,-0.9755,-0.9754,-0.9736,0,0,-0.9749,-0.9749,0,0,0,0,0,0,0,0,-0.9823,-0.982,-0.98,-0.9799,-0.9799,-0.9783,-0.9784,-0.9765,-0.978,-0.9787,-0.9781,-0.9782,-0.9764,-0.9762,-0.9757,-0.9735,-0.9733,-0.9749,-0.9748,-0.9748,-0.9747,0,0,0,0,0,0,0,-0.9824,-0.9821,-0.9793,-0.98,-0.9799,-0.9798,-0.9796,-0.9781,-0.9773,-0.9786,-0.9786,-0.9784,-0.9764,-0.9759,-0.9757,-0.9733,-0.9749,-0.9748,-0.9747,-0.9747,-0.9693,-0.9692,0,0,0,0,0,0,-0.9826,-0.9822,-0.9794,-0.9793,-0.9812,-0.9797,-0.9794,-0.9788,-0.9774,-0.9772,-0.9784,-0.9784,-0.9761,-0.9758,-0.9756,-0.9732,-0.9748,-0.9746,-0.9746,-0.9693,-0.9692,-0.9692,0,0,0,0,0,0,-0.9827,-0.9824,-0.9795,-0.9807,-0.9804,-0.9796,-0.9788,-0.9787,-0.9782,-0.9771,-0.977,-0.9779,-0.9761,-0.9758,-0.974,-0.9731,-0.9746,-0.9744,-0.9694,-0.9693,-0.9692,-0.9686,0,0,0,0,0,0,-0.9828,-0.9824,-0.9818,-0.9807,-0.9803,-0.9781,-0.9788,-0.9786,-0.9779,-0.978,-0.9767,-0.9765,-0.9761,-0.9743,-0.9739,-0.973,-0.9743,-0.9695,-0.9693,-0.9692,-0.9687,-0.9685,-0.9684,0,0,0,0,0,-0.983,-0.9817,-0.9818,-0.9814,-0.9795,-0.978,-0.9778,-0.9774,-0.9779,-0.9772,-0.9765,-0.9766,-0.9733,-0.9741,-0.9737,-0.9727,-0.9695,-0.9694,-0.9692,-0.9688,-0.9686,-0.9684,0,0,0,0,0,0,-0.9826,-0.9816,-0.9816,-0.98,-0.9791,-0.9781,-0.9772,-0.9772,-0.9761,-0.9762,-0.9757,-0.9754,-0.9736,-0.973,-0.9739,-0.9708,-0.9715,-0.9712,-0.9712,-0.971,-0.9708,-0.971,-0.9742,0,0,0,0,0,-0.9824,-0.9814,-0.9805,-0.9791,-0.9787,-0.978,-0.9773,-0.9771,-0.9761,-0.9757,-0.975,-0.9739,-0.9726,-0.9718,-0.9706,-0.9687,-0.9683,-0.9678,-0.9676,-0.9675,-0.9672,-0.966,-0.9657,-0.9688,-0.9688,-0.9688,0,0,-0.9818,-0.9811,-0.9805,-0.979,-0.9783,-0.9771,-0.9777,-0.9764,-0.9755,-0.9755,-0.9738,-0.9732,-0.972,-0.9701,-0.9692,-0.9695,-0.9663,-0.9673,-0.9672,-0.967,-0.9658,-0.9655,-0.9652,-0.9687,-0.9687,-0.9687,0,0,-0.9802,-0.9796,-0.9784,-0.9776,-0.9766,-0.9761,-0.9758,-0.9747,-0.9743,-0.9727,-0.9726,-0.9714,-0.9693,-0.9684,-0.9677,-0.9656,-0.9655,-0.9652,-0.9642,-0.963,-0.9628,-0.9625,-0.9616,-0.9613,-0.965,-0.965,-0.965,0,-0.9796,-0.9779,-0.9777,-0.9764,-0.9757,-0.9757,-0.9743,-0.9736,-0.9722,-0.9716,-0.972,-0.9692,-0.9685,-0.9663,-0.9657,-0.9652,-0.9647,-0.9653,-0.9628,-0.9626,-0.9624,-0.9615,-0.9612,-0.965,-0.965,-0.965,-0.965,0,-0.9771,-0.976,-0.9751,-0.9737,-0.9729,-0.9716,-0.971,-0.9702,-0.97,-0.9695,-0.9677,-0.9667,-0.9653,-0.9648,-0.9646,-0.9625,-0.9627,-0.963,-0.9636,-0.9621,-0.9612,-0.9609,-0.9649,-0.9649,-0.9649,-0.965,0,0,-0.9752,-0.9737,-0.9734,-0.9727,-0.9715,-0.9705,-0.9691,-0.9678,-0.967,-0.966,-0.9647,-0.9629,-0.9631,-0.9622,-0.9619,-0.9609,-0.9591,-0.9613,-0.9612,-0.9607,-0.9565,-0.9561,-0.9558,-0.9591,-0.959,-0.959,-0.9565,0,-0.9733,-0.9709,-0.9706,-0.9685,-0.9673,-0.9673,-0.966,-0.9651,-0.9646,-0.9634,-0.9627,-0.9614,-0.9619,-0.9613,-0.9603,-0.9595,-0.9582,-0.9597,-0.9577,-0.9576,-0.9578,-0.9554,-0.955,-0.9528,-0.9562,-0.9561,-0.9561,0,-0.9708,-0.9697,-0.9675,-0.9663,-0.9658,-0.9647,-0.9633,-0.9623,-0.9611,-0.9608,-0.9598,-0.9596,-0.958,-0.9588,-0.9565,-0.9576,-0.9567,-0.9562,-0.9561,-0.9558,-0.9567,-0.9548,-0.952,-0.9516,-0.9556,-0.9556,-0.9557,0,-0.9694,-0.9674,-0.9657,-0.9652,-0.9639,-0.963,-0.9624,-0.9614,-0.9605,-0.9593,-0.9587,-0.9573,-0.9565,-0.9553,-0.9547,-0.9554,-0.9523,-0.9531,-0.9518,-0.9518,-0.9511,-0.9511,-0.948,-0.9508,-0.9508,-0.9508,-0.9508,0,-0.9672,-0.9658,-0.9651,-0.964,-0.9624,-0.962,-0.9603,-0.9597,-0.9587,-0.9575,-0.9574,-0.9562,-0.9555,-0.9542,-0.9537,-0.9517,-0.9514,-0.9509,-0.9508,-0.9508,-0.9509,-0.9501,-0.9502,-0.9507,-0.9508,-0.9508,-0.9508,0,-0.9653,-0.9648,-0.963,-0.9619,-0.9615,-0.9603,-0.9593,-0.9582,-0.9577,-0.9561,-0.9557,-0.9548,-0.9531,-0.9525,-0.9505,-0.9501,-0.9478,-0.9479,-0.9482,-0.9481,-0.9468,-0.9468,-0.9429,-0.9423,-0.9457,-0.9457,-0.9457,0,-0.9639,-0.9628,-0.9615,-0.9607,-0.9601,-0.9588,-0.9579,-0.9575,-0.9565,-0.9551,-0.9541,-0.9525,-0.9512,-0.9486,-0.9477,-0.9461,-0.946,-0.9447,-0.9457,-0.9458,-0.9457,-0.9457,-0.9455,-0.9445,-0.9445,-0.9444,-0.9444,0,-0.9614,-0.9611,-0.96,-0.9586,-0.9576,-0.9565,-0.9554,-0.9547,-0.9541,-0.953,-0.9514,-0.9504,-0.9483,-0.9467,-0.945,-0.9442,-0.9441,-0.9441,-0.9437,-0.9437,-0.9438,-0.9435,-0.9475,-0.9442,-0.9442,-0.9442,-0.9442,-0.9442,-0.9595,-0.9585,-0.9574,-0.956,-0.9552,-0.9542,-0.953,-0.9524,-0.951,-0.9494,-0.9492,-0.9474,-0.9461,-0.9439,-0.943,-0.9415,-0.9418,-0.9412,-0.9411,-0.9409,-0.9407,-0.9442,-0.9412,-0.9412,-0.9412,-0.9412,-0.9412,0,-0.9568,-0.9561,-0.9549,-0.9534,-0.9522,-0.9524,-0.9512,-0.9502,-0.9486,-0.9475,-0.9462,-0.9442,-0.9426,-0.9415,-0.9398,-0.9388,-0.9387,-0.9383,-0.9383,-0.9381,-0.9406,-0.9411,-0.9384,-0.9384,-0.9384,-0.9384,-0.9384,-0.9384,-0.9553,-0.9535,-0.9531,-0.9508,-0.9501,-0.9484,-0.9476,-0.9466,-0.9457,-0.9435,-0.9422,-0.9416,-0.9404,-0.9386,-0.937,-0.9367,-0.936,-0.9356,-0.9353,-0.9377,-0.9379,-0.9382,-0.9386,-0.9355,-0.9355,-0.9329,-0.9329,-0.9328]}]]